K9TLD Weather Reports


time (UTC)temp
C
wind
direction
speed
KPH
gust
KPH
rain 1hr
cm
rain 24hr
cm
rain mn
cm
humidity
%
barometer
mb
20260906163503 22 90 8.0 11.3 0.00 0.00 0.00 77 1023.3
20260906163002 22 73 6.4 9.7 0.00 0.00 0.00 76 1023.3
20260906162500 22 83 4.8 6.4 0.00 0.00 0.00 79 1023.3
20260906161955 22 120 3.2 6.4 0.00 0.00 0.00 78 1023.3
20260906161449 22 55 3.2 3.2 0.00 0.00 0.00 77 1023.3
20260906160949 23 89 6.4 11.3 0.00 0.00 0.00 75 1023.3
20260906160443 22 87 6.4 11.3 0.00 0.00 0.00 77 1023.2
20260906155941 22 75 6.4 11.3 0.00 0.00 0.00 78 1023.3
20260906155439 22 50 4.8 9.7 0.00 0.00 0.00 77 1023.1
20260906154936 23 82 4.8 9.7 0.00 0.00 0.00 76 1023.4
20260906154431 23 65 4.8 6.4 0.00 0.00 0.00 76 1023.4
20260906153929 23 88 3.2 12.9 0.00 0.00 0.00 77 1023.3
20260906153428 23 78 4.8 9.7 0.00 0.00 0.00 75 1023.4
20260906152923 22 83 3.2 6.4 0.00 0.00 0.00 75 1023.4
20260906152418 23 86 3.2 6.4 0.00 0.00 0.00 73 1023.3
20260906151917 23 109 3.2 3.2 0.00 0.00 0.00 73 1023.3
20260906151413 23 61 4.8 6.4 0.00 0.00 0.00 73 1023.1
20260906150909 23 112 3.2 4.8 0.00 0.00 0.00 71 1023.2
20260906150404 23 69 1.6 3.2 0.00 0.00 0.00 73 1023.1
20260906145903 23 188 4.8 6.4 0.00 0.00 0.00 71 1023.1
20260906145357 23 101 3.2 3.2 0.00 0.00 0.00 73 1023.2
20260906144857 23 91 1.6 1.6 0.00 0.00 0.00 74 1023.3
20260906144346 23 145 3.2 3.2 0.00 0.00 0.00 73 1023.2
20260906143841 23 106 4.8 6.4 0.00 0.00 0.00 72 1023.3
20260906143337 23 76 3.2 6.4 0.00 0.00 0.00 71 1023.1
20260906142832 23 65 3.2 3.2 0.00 0.00 0.00 71 1023.3
20260906142327 23 140 3.2 4.8 0.00 0.00 0.00 71 1023.2
20260906141821 23 101 0.0 1.6 0.00 0.00 0.00 72 1023.1
20260906141316 23 85 0.0 0.0 0.00 0.00 0.00 73 1023.0
20260906140814 23 116 1.6 3.2 0.00 0.00 0.00 72 1023.0
20260906140310 23 84 1.6 3.2 0.00 0.00 0.00 74 1022.9
20260906135807 23 132 3.2 3.2 0.00 0.00 0.00 72 1023.0
20260906135305 23 93 4.8 4.8 0.00 0.00 0.00 73 1022.9
20260906134758 23 78 3.2 4.8 0.00 0.00 0.00 73 1022.6
20260906134253 23 135 1.6 4.8 0.00 0.00 0.00 73 1022.8
20260906133748 22 89 1.6 1.6 0.00 0.00 0.00 76 1022.7
20260906133244 22 92 1.6 1.6 0.00 0.00 0.00 77 1022.8
20260906132739 21 120 1.6 3.2 0.00 0.00 0.00 78 1022.7
20260906132234 21 104 3.2 4.8 0.00 0.00 0.00 79 1022.9
20260906131729 21 98 0.0 1.6 0.00 0.00 0.00 80 1023.1
20260906131224 21 171 1.6 3.2 0.00 0.00 0.00 81 1023.0
20260906130720 21 126 0.0 0.0 0.00 0.00 0.00 82 1023.0
20260906130214 22 129 0.0 1.6 0.00 0.00 0.00 79 1022.8
20260906125713 22 130 1.6 3.2 0.00 0.00 0.00 77 1022.7
20260906125211 22 158 0.0 0.0 0.00 0.00 0.00 78 1022.5
20260906124707 22 106 1.6 3.2 0.00 0.00 0.00 79 1022.7
20260906124202 22 108 3.2 3.2 0.00 0.00 0.00 78 1022.4
20260906123701 22 120 1.6 1.6 0.00 0.00 0.00 79 1022.5
20260906123156 21 89 1.6 1.6 0.00 0.00 0.00 81 1022.3
20260906122655 21 95 1.6 3.2 0.00 0.00 0.00 82 1022.3
20260906122151 21 103 1.6 3.2 0.00 0.00 0.00 83 1022.3
20260906121647 20 130 3.2 3.2 0.00 0.00 0.00 84 1022.2
20260906121143 20 129 0.0 1.6 0.00 0.00 0.00 87 1022.3
20260906120639 20 130 0.0 1.6 0.00 0.00 0.00 87 1022.3
20260906120136 20 118 0.0 0.0 0.00 0.00 0.00 87 1022.2
20260906115637 20 116 0.0 0.0 0.00 0.00 0.00 86 1022.1
20260906115132 20 136 0.0 0.0 0.00 0.00 0.00 86 1021.9
20260906114631 20 158 0.0 0.0 0.00 0.00 0.00 88 1021.8
20260906114126 20 158 0.0 0.0 0.00 0.00 0.00 88 1021.7
20260906113626 20 158 0.0 0.0 0.00 0.00 0.00 88 1021.7
20260906113121 20 158 0.0 0.0 0.00 0.00 0.00 88 1021.7
20260906112620 20 158 0.0 0.0 0.00 0.00 0.00 88 1021.7
20260906112118 20 158 0.0 0.0 0.00 0.00 0.00 88 1021.6
20260906111616 -17 0.0 0.0 0.00 0.00 0.00 1021.5
20260906111112 -17 0.0 0.0 0.00 0.00 0.00 1021.3
20260906110611 -17 0.0 0.0 0.00 0.00 0.00 1021.4
20260906110106 -17 0.0 0.0 0.00 0.00 0.00 1021.3
20260906105601 -17 0.0 0.0 0.00 0.00 0.00 1021.2
20260906105057 -17 0.0 0.0 0.00 0.00 0.00 1021.3
20260906104555 -17 0.0 0.0 0.00 0.00 0.00 1021.4
20260906104049 -17 0.0 0.0 0.00 0.00 0.00 1021.4
20260906103548 17 120 0.0 0.0 0.00 0.00 0.00 99 1021.1
20260906103043 17 120 0.0 0.0 0.00 0.00 0.00 99 1021.3
20260906102537 17 120 0.0 0.0 0.00 0.00 0.00 99 1021.3
20260906102032 17 120 0.0 0.0 0.00 0.00 0.00 99 1021.2
20260906101527 17 120 0.0 0.0 0.00 0.00 0.00 99 1021.3
20260906101022 17 120 0.0 0.0 0.00 0.00 0.00 99 1021.3
20260906100518 17 120 0.0 0.0 0.00 0.00 0.00 99 1021.4
20260906100013 17 120 0.0 0.0 0.00 0.00 0.00 99 1021.2
20260906095507 17 120 0.0 0.0 0.00 0.00 0.00 99 1021.1
20260906095003 17 120 0.0 0.0 0.00 0.00 0.00 99 1021.2
20260906094501 17 120 0.0 0.0 0.00 0.00 0.00 99 1021.2
20260906093958 17 120 0.0 0.0 0.00 0.00 0.00 99 1021.1
20260906093454 17 130 0.0 0.0 0.00 0.00 0.00 99 1021.0
20260906092953 17 129 0.0 0.0 0.00 0.00 0.00 99 1021.1
20260906092453 17 113 0.0 0.0 0.00 0.00 0.00 99 1021.0
20260906091948 17 265 0.0 0.0 0.00 0.00 0.00 99 1020.9
20260906091444 17 265 0.0 0.0 0.00 0.00 0.00 99 1021.0
20260906090941 17 265 0.0 0.0 0.00 0.00 0.00 99 1021.0
20260906090436 17 265 0.0 0.0 0.00 0.00 0.00 99 1020.9
20260906085930 17 265 0.0 0.0 0.00 0.00 0.00 99 1020.9
20260906085430 17 265 0.0 0.0 0.00 0.00 0.00 99 1020.9
20260906084929 17 265 0.0 0.0 0.00 0.00 0.00 99 1021.1
20260906084424 17 265 0.0 0.0 0.00 0.00 0.00 99 1021.0
20260906083923 17 265 0.0 0.0 0.00 0.00 0.00 99 1020.9
20260906083419 17 265 0.0 0.0 0.00 0.00 0.00 99 1021.1
20260906082918 17 265 0.0 0.0 0.00 0.00 0.00 99 1021.1
20260906082414 17 265 0.0 1.6 0.00 0.00 0.00 99 1021.1
20260906081909 17 265 0.0 1.6 0.00 0.00 0.00 99 1021.1
20260906081404 17 265 0.0 0.0 0.00 0.00 0.00 99 1020.8
20260906080901 17 265 0.0 0.0 0.00 0.00 0.00 99 1020.8
20260906080357 17 265 0.0 0.0 0.00 0.00 0.00 99 1021.0
20260906075856 17 265 0.0 0.0 0.00 0.00 0.00 99 1020.9
20260906075351 17 265 0.0 0.0 0.00 0.00 0.00 99 1020.6
20260906074846 17 265 0.0 0.0 0.00 0.00 0.00 99 1020.7
20260906074345 17 265 0.0 0.0 0.00 0.00 0.00 99 1020.5
20260906073844 17 265 0.0 0.0 0.00 0.00 0.00 99 1020.5
20260906073339 17 265 0.0 0.0 0.00 0.00 0.00 99 1020.4
20260906072836 18 265 0.0 0.0 0.00 0.00 0.00 99 1020.4
20260906072331 18 265 0.0 0.0 0.00 0.00 0.00 99 1020.3
20260906071828 18 265 0.0 0.0 0.00 0.00 0.00 99 1020.3
20260906071327 18 265 0.0 0.0 0.00 0.00 0.00 99 1020.1
20260906070824 18 265 0.0 0.0 0.00 0.00 0.00 99 1020.4
20260906070320 18 265 0.0 0.0 0.00 0.00 0.00 99 1020.4
20260906065820 18 265 0.0 0.0 0.00 0.00 0.00 99 1020.1
20260906065315 18 265 0.0 0.0 0.00 0.00 0.00 99 1020.4
20260906064810 18 265 0.0 0.0 0.00 0.00 0.00 99 1020.3
20260906064306 17 265 0.0 0.0 0.00 0.00 0.00 99 1020.4
20260906063801 18 265 0.0 0.0 0.00 0.00 0.00 99 1020.3
20260906063256 18 265 0.0 0.0 0.00 0.00 0.00 99 1020.3
20260906062751 17 265 0.0 0.0 0.00 0.00 0.00 99 1020.1
20260906062251 18 265 0.0 0.0 0.00 0.00 0.00 99 1020.1
20260906061746 18 265 0.0 0.0 0.00 0.00 0.00 99 1020.3
20260906061243 18 265 0.0 0.0 0.00 0.00 0.00 99 1020.4
20260906060732 18 265 0.0 0.0 0.00 0.00 0.00 99 1020.3
20260906060230 18 265 0.0 0.0 0.00 0.00 0.00 99 1020.0
20260906055725 18 265 0.0 0.0 0.00 0.00 0.00 99 1020.3
20260906055220 18 265 0.0 0.0 0.00 0.00 0.00 99 1020.1
20260906054716 18 265 0.0 0.0 0.00 0.00 0.00 99 1020.3
20260906054216 18 265 0.0 0.0 0.00 0.00 0.00 99 1020.0
20260906053712 18 265 0.0 0.0 0.00 0.00 0.00 99 1019.9
20260906053207 18 265 0.0 0.0 0.00 0.00 0.00 99 1020.0
20260906052702 18 265 0.0 0.0 0.00 0.00 0.00 99 1019.8
20260906052159 18 265 0.0 0.0 0.00 0.00 0.00 99 1019.8
20260906051655 18 265 0.0 0.0 0.00 0.00 0.00 99 1019.9
20260906051154 18 265 0.0 0.0 0.00 0.00 0.00 99 1020.0
20260906050650 18 265 0.0 0.0 0.00 0.00 0.00 98 1019.7
20260906050145 18 265 0.0 0.0 0.00 0.00 0.00 98 1019.9
20260906045644 18 265 0.0 0.0 0.00 0.00 0.00 98 1020.0
20260906045139 18 265 0.0 0.0 0.00 0.00 0.00 98 1020.0
20260906044635 18 265 0.0 1.6 0.00 0.00 0.00 98 1020.1
20260906044130 18 264 0.0 0.0 0.00 0.00 0.00 98 1019.9
20260906043626 18 264 0.0 0.0 0.00 0.00 0.00 98 1020.0
20260906043121 18 264 0.0 0.0 0.00 0.00 0.00 98 1019.9
20260906042621 18 264 0.0 0.0 0.00 0.00 0.00 98 1019.7
20260906042115 18 264 0.0 0.0 0.00 0.00 0.00 98 1019.9
20260906041612 18 264 0.0 0.0 0.00 0.00 0.00 98 1019.7
20260906041106 18 264 0.0 0.0 0.00 0.00 0.00 98 1019.8
20260906040601 18 268 0.0 0.0 0.00 0.00 0.00 98 1019.6
20260906040057 18 270 1.6 3.2 0.00 0.00 0.00 98 1019.6
20260906035552 18 263 0.0 0.0 0.00 0.00 0.00 98 1019.7
20260906035048 18 263 0.0 0.0 0.00 0.00 0.00 98 1019.7
20260906034548 18 263 0.0 0.0 0.00 0.00 0.00 97 1019.6
20260906034043 18 263 0.0 0.0 0.00 0.00 0.00 97 1019.6
20260906033538 18 263 0.0 0.0 0.00 0.00 0.00 97 1019.5
20260906033033 18 263 0.0 0.0 0.00 0.00 0.00 97 1019.7
20260906032530 18 264 0.0 3.2 0.00 0.00 0.00 97 1019.6
20260906032030 18 357 0.0 0.0 0.00 0.00 0.00 97 1019.7
20260906031526 18 357 0.0 0.0 0.00 0.00 0.00 96 1019.6
20260906031021 18 358 0.0 0.0 0.00 0.00 0.00 96 1019.5
20260906030520 18 261 0.0 0.0 0.00 0.00 0.00 96 1019.6
20260906030020 18 261 0.0 0.0 0.00 0.00 0.00 96 1019.6
20260906025520 18 261 0.0 0.0 0.00 0.00 0.00 96 1019.6
20260906025018 18 261 0.0 0.0 0.00 0.00 0.00 95 1019.6
20260906024514 18 260 0.0 0.0 0.00 0.00 0.00 95 1019.7
20260906024014 18 260 0.0 0.0 0.00 0.00 0.00 95 1019.6
20260906023510 18 261 0.0 0.0 0.00 0.00 0.00 95 1019.7
20260906023005 18 257 0.0 0.0 0.00 0.00 0.00 95 1019.7
20260906022500 18 257 0.0 0.0 0.00 0.00 0.00 95 1019.7
20260906021955 19 257 0.0 0.0 0.00 0.00 0.00 95 1019.5
20260906021450 19 257 0.0 0.0 0.00 0.00 0.00 95 1019.7
20260906020950 19 256 0.0 0.0 0.00 0.00 0.00 95 1019.7
20260906020444 19 257 0.0 0.0 0.00 0.00 0.00 95 1019.6
20260906015938 19 256 0.0 0.0 0.00 0.00 0.00 94 1019.7
20260906015432 19 257 0.0 0.0 0.00 0.00 0.00 94 1019.7
20260906014932 19 257 0.0 0.0 0.00 0.00 0.00 94 1019.5
20260906014432 19 256 0.0 0.0 0.00 0.00 0.00 94 1019.6
20260906013928 19 282 0.0 1.6 0.00 0.00 0.00 94 1019.4
20260906013423 19 287 0.0 0.0 0.00 0.00 0.00 93 1019.4
20260906012919 20 288 0.0 0.0 0.00 0.00 0.00 93 1019.3
20260906012414 20 168 0.0 0.0 0.00 0.00 0.00 93 1019.3
20260906011913 20 124 0.0 1.6 0.00 0.00 0.00 93 1019.3
20260906011408 20 195 0.0 0.0 0.00 0.00 0.00 92 1019.4
20260906010904 20 126 0.0 0.0 0.00 0.00 0.00 92 1019.3
20260906010359 20 139 0.0 3.2 0.00 0.00 0.00 92 1019.2
20260906005855 20 56 0.0 1.6 0.00 0.00 0.00 92 1019.2
20260906005354 20 60 0.0 0.0 0.00 0.00 0.00 92 1019.1
20260906004853 20 56 0.0 0.0 0.00 0.00 0.00 92 1019.2
20260906004353 20 52 0.0 1.6 0.00 0.00 0.00 93 1019.1
20260906003848 20 185 0.0 1.6 0.00 0.00 0.00 94 1019.0
20260906003343 20 63 0.0 1.6 0.00 0.00 0.00 94 1019.2
20260906002839 20 66 0.0 3.2 0.00 0.00 0.00 94 1019.0
20260906002338 20 141 0.0 1.6 0.00 0.00 0.00 94 1019.2
20260906001834 20 2 0.0 0.0 0.00 0.00 0.00 93 1019.4
20260906001329 20 271 0.0 0.0 0.00 0.00 0.00 93 1019.1
20260906000824 20 91 0.0 1.6 0.00 0.00 0.00 92 1019.1
20260906000319 20 94 0.0 1.6 0.00 0.00 0.00 91 1019.2
20260905235820 20 46 0.0 1.6 0.00 0.00 0.00 91 1019.3
20260905235319 20 48 0.0 1.6 0.00 0.00 0.00 90 1019.3
20260905234815 20 44 0.0 1.6 0.00 0.00 0.00 89 1019.3
20260905234310 21 57 0.0 1.6 0.00 0.00 0.00 88 1019.4
20260905233806 21 62 0.0 0.0 0.00 0.00 0.00 87 1019.4
20260905233305 21 69 0.0 1.6 0.00 0.00 0.00 85 1019.2
20260905232804 21 70 0.0 3.2 0.00 0.00 0.00 83 1019.2
20260905232305 21 53 0.0 0.0 0.00 0.00 0.00 82 1019.2
20260905231757 22 46 0.0 1.6 0.00 0.00 0.00 81 1019.4
20260905231252 22 42 0.0 1.6 0.00 0.00 0.00 80 1019.2
20260905230748 22 53 1.6 1.6 0.00 0.00 0.00 79 1019.3
20260905230245 22 133 1.6 3.2 0.00 0.00 0.00 79 1019.1
20260905225739 22 238 0.0 3.2 0.00 0.00 0.00 80 1019.1
20260905225235 22 49 0.0 1.6 0.00 0.00 0.00 80 1019.2
20260905224734 22 115 1.6 1.6 0.00 0.00 0.00 80 1019.2
20260905224230 22 108 3.2 3.2 0.00 0.00 0.00 82 1019.3
20260905223726 22 67 0.0 0.0 0.00 0.00 0.00 83 1019.0
20260905223222 22 176 0.0 1.6 0.00 0.00 0.00 84 1019.1
20260905222718 21 156 1.6 3.2 0.00 0.00 0.00 85 1019.1
20260905222217 21 155 0.0 1.6 0.00 0.00 0.00 85 1019.2
20260905221713 21 42 0.0 1.6 0.00 0.00 0.00 84 1019.0
20260905221209 22 180 1.6 1.6 0.00 0.00 0.00 82 1019.1
20260905220705 22 56 1.6 1.6 0.00 0.00 0.00 83 1018.9
20260905220201 22 51 1.6 1.6 0.00 0.00 0.00 83 1019.1
20260905215700 22 54 0.0 1.6 0.00 0.00 0.00 83 1019.1
20260905215156 22 48 1.6 3.2 0.00 0.00 0.00 82 1019.1
20260905214651 22 64 0.0 1.6 0.00 0.00 0.00 84 1019.4
20260905214147 22 236 0.0 0.0 0.00 0.00 0.00 84 1019.3
20260905213643 22 167 0.0 1.6 0.00 0.00 0.00 84 1019.3
20260905213138 22 138 0.0 4.8 0.00 0.00 0.00 85 1019.0
20260905212633 22 133 0.0 3.2 0.00 0.00 0.00 85 1019.0
20260905212133 22 115 0.0 1.6 0.00 0.00 0.00 87 1019.2
20260905211627 21 54 0.0 1.6 0.00 0.00 0.00 87 1019.1
20260905211123 21 113 0.0 3.2 0.00 0.00 0.00 87 1019.1
20260905210620 21 61 1.6 3.2 0.00 0.00 0.00 87 1019.1
20260905210114 21 50 1.6 1.6 0.00 0.00 0.00 87 1019.0
20260905205612 22 340 1.6 3.2 0.00 0.00 0.00 87 1019.2
20260905205112 22 149 0.0 1.6 0.00 0.00 0.00 86 1019.0
20260905204607 22 128 0.0 1.6 0.00 0.00 0.00 86 1018.9
20260905204102 22 41 0.0 1.6 0.00 0.00 0.00 87 1018.9
20260905203601 22 57 0.0 3.2 0.00 0.00 0.00 87 1019.0
20260905203057 22 122 0.0 1.6 0.00 0.00 0.00 88 1018.9
20260905202552 22 60 1.6 3.2 0.00 0.00 0.00 88 1019.0
20260905202048 21 66 0.0 1.6 0.00 0.00 0.00 89 1019.2
20260905201543 21 126 0.0 1.6 0.00 0.00 0.00 90 1019.0
20260905201043 21 85 0.0 1.6 0.00 0.00 0.00 91 1019.1
20260905200538 21 85 0.0 0.0 0.00 0.00 0.00 92 1019.0
20260905200038 21 141 0.0 3.2 0.00 0.00 0.00 92 1019.1
20260905195532 21 155 0.0 3.2 0.00 0.00 0.00 92 1019.2
20260905195028 21 51 0.0 1.6 0.00 0.00 0.00 92 1019.3
20260905194527 21 37 1.6 4.8 0.00 0.00 0.00 92 1019.0
20260905194021 21 275 1.6 3.2 0.00 0.00 0.00 92 1019.1
20260905193516 21 73 1.6 1.6 0.00 0.00 0.00 91 1019.2
20260905193011 22 149 1.6 3.2 0.00 0.00 0.00 91 1019.1
20260905192506 22 120 1.6 3.2 0.00 0.00 0.00 91 1019.3
20260905192002 22 111 0.0 1.6 0.00 0.00 0.00 91 1019.0
20260905191501 22 122 0.0 1.6 0.00 0.00 0.00 92 1019.1
20260905191000 21 71 0.0 1.6 0.00 0.00 0.00 92 1019.2
20260905190458 21 80 0.0 0.0 0.00 0.00 0.00 93 1019.1
20260905185957 21 92 0.0 1.6 0.00 0.00 0.00 93 1019.3
20260905185452 21 116 1.6 1.6 0.00 0.00 0.00 93 1019.2
20260905184951 21 89 0.0 1.6 0.00 0.00 0.00 94 1019.2
20260905184446 21 116 0.0 1.6 0.00 0.00 0.00 93 1019.4
20260905183945 21 96 0.0 0.0 0.00 0.00 0.00 93 1019.4
20260905183439 22 80 1.6 1.6 0.00 0.00 0.00 92 1019.5
20260905182935 22 76 0.0 1.6 0.00 0.00 0.00 92 1019.3
20260905182434 22 68 0.0 1.6 0.00 0.00 0.00 92 1019.3
20260905181929 22 68 0.0 1.6 0.00 0.00 0.00 92 1019.2
20260905181430 22 89 1.6 3.2 0.00 0.00 0.00 92 1019.2
20260905180929 21 89 0.0 0.0 0.00 0.00 0.00 93 1019.4
20260905180424 22 64 0.0 1.6 0.00 0.00 0.00 92 1019.5
20260905175918 22 57 0.0 1.6 0.00 0.00 0.00 92 1019.2
20260905175417 22 58 0.0 0.0 0.00 0.00 0.00 93 1019.2
20260905174913 21 117 0.0 1.6 0.00 0.00 0.00 93 1019.4
20260905174409 21 120 0.0 0.0 0.00 0.00 0.00 94 1019.2
20260905173904 21 118 0.0 1.6 0.00 0.00 0.00 95 1019.2
20260905173400 21 54 0.0 1.6 0.00 0.00 0.00 95 1019.1
20260905172855 21 58 0.0 1.6 0.00 0.00 0.00 95 1019.2
20260905172353 21 57 0.0 1.6 0.00 0.00 0.00 95 1019.3
20260905171849 21 165 0.0 1.6 0.00 0.00 0.00 95 1019.3
20260905171341 21 132 0.0 1.6 0.00 0.00 0.00 95 1019.3
20260905170837 21 95 0.0 0.0 0.00 0.00 0.00 95 1019.4
20260905170333 21 104 0.0 0.0 0.00 0.00 0.00 95 1019.4
20260905165831 21 87 0.0 0.0 0.00 0.00 0.00 95 1019.3
20260905165326 21 105 0.0 0.0 0.00 0.00 0.00 95 1019.2
20260905164821 21 105 0.0 0.0 0.00 0.00 0.00 95 1019.5
20260905164316 21 106 0.0 0.0 0.00 0.00 0.00 95 1019.2
20260905163811 21 90 0.0 0.0 0.00 0.00 0.00 96 1019.1